Weather History for PAHO - February, 2012

Change the Weather History Date:

Tuesday, February 28, 2012

  Actual Average Record
Temperature  
Mean Temperature 16 °F -  
Max Temperature 19 °F 33 °F 46 °F (1991)
Min Temperature 14 °F 18 °F -11 °F (1956)
Degree Days  
Heating Degree Days 48    
Moisture  
Dew Point 14 °F    
Average Humidity 90    
Maximum Humidity 100    
Minimum Humidity 77    
Precipitation  
Precipitation 0.02 in - - ()
Sea Level Pressure  
Sea Level Pressure 29.59 in    
Wind  
Wind Speed 15 mph (WSW)    
Max Wind Speed 26 mph    
Max Gust Speed 32 mph    
Visibility 5 miles    
Events Snow    
Averages and records for this station are not official NWS values.
T = Trace of Precipitation, MM = Missing Value Source: NWS Daily Summary

Daily Weather History Graph

Daily Weather History Graph

Search for Another Location

Airport or City:

Trip Planner

Search our weather history database for the weather conditions in past years. The results will help you decide how hot, cold, wet, or windy it might be!

Date:

Astronomy

Feb. 28, 2012 Rise Set
Actual Time 8:07 AM AKST 6:30 PM AKST
Civil Twilight 7:25 AM AKST 7:12 PM AKST
Nautical Twilight 6:38 AM AKST 8:00 PM AKST
Astronomical Twilight 5:50 AM AKST 8:48 PM AKST
Moon 9:29 AM AKST (2/28) 2:22 AM AKST (2/28)
Length of Visible Light 11h 46m
Length of Day
10h 23m
Waxing Crescent, 39% of the Moon is Illuminated
Feb 28
Waxing Crescent
Feb 29
First Quarter
Mar 8
Full
Mar 14
Last Quarter
Mar 22
New

Hourly Weather History & Observations

Time (AKST) Temp. Windchill Dew Point Humidity Pressure Visibility Wind Dir Wind Speed Gust Speed Precip Events Conditions
12:39 AM 17.6 °F 0.5 °F 14.0 °F 86% 29.51 in 10.0 mi SW 21.9 mph 27.6 mph N/A   Overcast
12:53 AM 16.0 °F -3.2 °F 14.0 °F 92% 29.52 in 7.0 mi SW 26.5 mph 31.1 mph N/A   Overcast
1:06 AM 15.8 °F -2.7 °F 12.2 °F 86% 29.51 in 4.0 mi SW 24.2 mph 32.2 mph 0.00 in Snow Light Snow
1:22 AM 15.8 °F -2.3 °F 14.0 °F 93% 29.51 in 2.0 mi SW 23.0 mph 32.2 mph 0.00 in Snow Light Snow
1:51 AM 15.8 °F -1.9 °F 14.0 °F 93% 29.52 in 3.0 mi SW 21.9 mph 27.6 mph 0.00 in Snow Light Snow
1:53 AM 16.0 °F -1.7 °F 14.0 °F 92% 29.52 in 3.0 mi SW 21.9 mph 27.6 mph 0.00 in Snow Light Snow
2:08 AM 15.8 °F -1.1 °F 14.0 °F 93% 29.52 in 5.0 mi SW 19.6 mph 29.9 mph 0.00 in Snow Light Snow
2:45 AM 15.8 °F -1.9 °F 12.2 °F 86% 29.53 in 2.5 mi SW 21.9 mph 29.9 mph 0.00 in Snow Light Snow
3:09 AM 15.8 °F -1.1 °F 12.2 °F 86% 29.53 in 2.5 mi SW 19.6 mph - 0.00 in Snow Light Snow
3:18 AM 15.8 °F -0.6 °F 12.2 °F 86% 29.53 in 3.0 mi SW 18.4 mph - 0.00 in Snow Light Snow
3:34 AM 15.8 °F 0.3 °F 12.2 °F 86% 29.54 in 2.0 mi SW 16.1 mph 27.6 mph 0.00 in Snow Light Snow
3:41 AM 15.8 °F -1.1 °F 12.2 °F 86% 29.54 in 1.8 mi SW 19.6 mph 27.6 mph 0.00 in Snow Light Snow
3:48 AM 15.8 °F -0.6 °F 12.2 °F 86% 29.54 in 2.0 mi SW 18.4 mph - 0.00 in Snow Light Snow
3:53 AM 15.1 °F -1.6 °F 12.0 °F 88% 29.55 in 2.5 mi SW 18.4 mph - 0.00 in Snow Light Snow
4:01 AM 15.8 °F -0.6 °F 12.2 °F 86% 29.54 in 2.5 mi SW 18.4 mph - 0.00 in Snow Light Snow
4:14 AM 15.8 °F -0.6 °F 12.2 °F 86% 29.55 in 1.5 mi WSW 18.4 mph - 0.00 in Snow Light Snow
4:39 AM 14.0 °F -1.4 °F 12.2 °F 93% 29.55 in 1.8 mi WSW 15.0 mph - 0.00 in Snow Light Snow
4:46 AM 14.0 °F -2.0 °F 12.2 °F 93% 29.55 in 2.0 mi SW 16.1 mph 21.9 mph 0.00 in Snow Light Snow
4:53 AM 14.0 °F -0.2 °F 10.9 °F 88% 29.56 in 2.0 mi WSW 12.7 mph - 0.00 in Snow Light Snow
5:30 AM 14.0 °F 2.0 °F 10.4 °F 86% 29.56 in 3.0 mi SW 9.2 mph - 0.00 in Snow Light Snow
5:53 AM 14.0 °F 0.5 °F 12.0 °F 92% 29.57 in 4.0 mi WSW 11.5 mph - 0.00 in Snow Light Snow
6:53 AM 16.0 °F 6.3 °F 12.0 °F 84% 29.59 in 2.5 mi SW 6.9 mph - 0.00 in Snow Light Snow
7:41 AM 15.8 °F 8.6 °F 14.0 °F 93% 29.59 in 2.0 mi West 4.6 mph - 0.00 in Snow Light Snow
7:53 AM 16.0 °F 8.8 °F 14.0 °F 92% 29.60 in 2.5 mi WSW 4.6 mph - 0.01 in Snow Light Snow
8:34 AM 15.8 °F 10.2 °F 15.8 °F 100% 29.60 in 1.2 mi Variable 3.5 mph - 0.00 in Snow Light Snow
8:53 AM 16.0 °F - 14.0 °F 92% 29.60 in 1.2 mi Calm Calm - 0.00 in Snow Light Snow
9:24 AM 15.8 °F 7.2 °F 14.0 °F 93% 29.60 in 1.5 mi ENE 5.8 mph - 0.00 in Snow Light Snow
9:48 AM 15.8 °F 7.2 °F 15.8 °F 100% 29.60 in 2.0 mi NE 5.8 mph - 0.00 in Snow Light Snow
9:53 AM 16.0 °F 6.3 °F 14.0 °F 92% 29.60 in 2.0 mi NE 6.9 mph - 0.00 in Snow Light Snow
9:57 AM 15.8 °F 7.2 °F 15.8 °F 100% 29.60 in 3.0 mi NE 5.8 mph - 0.00 in Snow Light Snow
10:04 AM 17.6 °F 8.2 °F 15.8 °F 93% 29.60 in 3.0 mi NE 6.9 mph - 0.00 in Snow Light Snow
10:53 AM 17.1 °F 5.8 °F 16.0 °F 96% 29.61 in 4.0 mi ENE 9.2 mph - 0.00 in Snow Light Snow
11:42 AM 14.0 °F 2.9 °F 12.2 °F 93% 29.60 in 10.0 mi ENE 8.1 mph - 0.00 in   Scattered Clouds
11:53 AM 16.0 °F 5.3 °F 14.0 °F 92% 29.61 in 10.0 mi ENE 8.1 mph - 0.00 in   Partly Cloudy
12:39 PM 19.4 °F 14.3 °F 15.8 °F 86% 29.62 in 10.0 mi East 3.5 mph - N/A   Mostly Cloudy
12:53 PM 19.9 °F 13.4 °F 15.1 °F 81% 29.62 in 10.0 mi East 4.6 mph - N/A   Overcast
1:53 PM 19.0 °F 11.1 °F 14.0 °F 81% 29.62 in 10.0 mi East 5.8 mph - N/A   Overcast
2:53 PM 19.0 °F - 12.9 °F 77% 29.63 in 9.0 mi Calm Calm - N/A   Overcast
3:53 PM 19.9 °F - 14.0 °F 78% 29.65 in 9.0 mi Calm Calm - N/A   Overcast
4:53 PM 19.9 °F 14.9 °F 15.1 °F 81% 29.64 in 6.0 mi NNE 3.5 mph - 0.00 in Snow Light Snow
5:53 PM 19.9 °F - 15.1 °F 81% 29.64 in 5.0 mi Calm Calm - 0.00 in   Haze
6:53 PM 19.0 °F - 16.0 °F 88% 29.62 in 6.0 mi Calm Calm - 0.00 in Snow Light Snow
7:53 PM 19.0 °F - 17.1 °F 92% 29.62 in 10.0 mi Calm Calm - 0.00 in   Overcast
8:53 PM 19.9 °F - 16.0 °F 85% 29.63 in 10.0 mi Calm Calm - N/A   Overcast
9:19 PM 19.4 °F 6.0 °F 17.6 °F 93% 29.64 in 7.0 mi West 13.8 mph 20.7 mph 0.00 in Snow Light Snow
9:35 PM 17.6 °F 5.0 °F 17.6 °F 100% 29.65 in 2.5 mi West 11.5 mph - 0.01 in Snow Light Snow
9:46 PM 17.6 °F 5.7 °F 17.6 °F 100% 29.66 in 4.0 mi West 10.4 mph 17.3 mph 0.01 in Snow Light Snow
9:53 PM 18.0 °F 6.9 °F 17.1 °F 96% 29.66 in 4.0 mi West 9.2 mph - 0.01 in Snow Light Snow
10:03 PM 17.6 °F 8.2 °F 17.6 °F 100% 29.65 in 7.0 mi West 6.9 mph - 0.00 in Snow Light Snow
10:53 PM 18.0 °F 11.1 °F 16.0 °F 92% 29.65 in 9.0 mi West 4.6 mph - 0.00 in Snow Light Snow
11:53 PM 18.0 °F 4.8 °F 16.0 °F 92% 29.64 in 6.0 mi WSW 12.7 mph - 0.00 in Snow Light Snow